Lapse_Rate
7.7 7.9 8.0 7.9 9.0 8.1 8.5 7.9 4.9 5.4 6.5 6.4 6.7 7.0 7.6 8.8 9.6 9.6 9.5 9.0 9.5 9.5
7.8 8.5 8.7 9.0 7.5 8.2 8.5 6.0 5.0 5.0 5.4 5.6 5.9 6.3 6.6 7.4 7.1 7.6 7.1 6.9 7.3 8.0
7.7 8.3 8.5 6.6 6.9 6.9 6.2 5.6 4.9 5.0 5.3 5.6 5.6 6.1 6.4 5.7 5.7 6.2 6.4 6.6 6.6 6.7
8.0 7.9 6.7 6.1 6.4 5.7 5.2 5.2 5.2 5.2 5.5 5.9 5.9 6.1 6.3 6.0 5.6 5.6 6.0 5.7 5.9 5.8
7.4 7.0 6.0 6.2 5.8 5.2 5.3 5.4 5.7 5.4 6.1 6.3 6.1 6.0 5.9 6.1 5.7 5.6 5.6 5.5 5.4 5.5
6.8 6.4 6.1 6.2 6.0 5.0 5.6 5.6 5.8 5.7 6.1 6.2 5.9 5.9 6.0 5.9 5.8 5.9 5.8 5.6 5.6 5.7
6.5 6.3 6.7 6.7 6.1 5.5 5.6 5.6 5.5 5.8 6.3 6.2 5.9 5.9 6.3 6.0 5.8 5.6 5.8 5.6 5.9 6.1
7.6 7.7 7.4 6.8 6.3 5.9 5.7 6.2 6.1 5.9 6.3 6.0 6.3 6.4 6.3 6.2 5.6 5.6 5.0 5.0 5.7 4.9
9.0 8.4 6.9 6.5 6.6 6.2 6.3 6.6 6.5 6.4 6.5 5.8 7.0 1.0 2.8 4.8 5.8 5.9 5.5 5.2 5.2 2.3
9.0 8.3 6.9 6.9 7.7 7.2 6.5 6.1 5.9 6.7 6.9 6.1 7.8 0.0 1.4 2.6 6.5 6.6 6.3 6.2 5.0 4.8
9.1 8.0 7.3 7.5 8.1 7.5 6.1 5.5 5.9 6.6 7.0 6.7 7.0 -1.2 0.5 2.1 7.2 7.5 7.1 7.1 6.1 6.9
9.0 8.4 7.5 7.2 7.5 6.6 5.8 5.8 6.1 6.6 6.8 7.1 5.2 -1.9 -0.7 1.4 7.5 8.1 8.0 7.2 6.9 7.0
9.1 8.7 8.1 8.1 7.4 6.5 6.5 6.0 7.1 8.0 7.4 6.6 5.9 -2.7 -1.5 1.2 8.4 8.9 9.1 8.4 7.9 3.7
9.3 8.7 8.9 8.7 7.8 6.6 6.7 7.8 8.1 9.2 8.8 8.4 8.0 0.3 -2.2 -1.1 8.2 9.5 9.4 9.3 8.7 5.7
Wind_Speed
14 9 10 10 8 7 7 8 12 11 10 10 10 9 9 7 5 6 5 4 1 2
14 12 11 11 9 8 8 8 11 12 11 11 11 10 10 6 6 6 5 5 5 4
14 13 12 11 11 11 9 11 11 11 11 11 11 11 10 8 9 8 6 6 7 6
14 13 12 11 11 11 11 11 12 12 11 10 11 11 9 9 10 10 8 8 8 7
14 14 13 12 12 12 12 13 12 12 12 11 11 11 10 10 10 10 10 9 9 8
15 14 14 13 14 14 13 13 13 12 12 12 11 11 10 10 10 10 9 9 9 8
16 16 14 14 14 14 14 13 13 13 12 12 12 12 11 11 10 10 9 8 8 8
17 16 15 15 13 14 14 13 13 13 12 12 11 9 12 12 11 10 10 8 8 8
17 17 15 14 14 14 14 14 13 13 13 13 10 16 12 13 11 11 11 10 9 9
17 16 15 16 15 15 14 12 12 12 13 13 10 17 12 10 10 10 10 10 9 8
17 17 16 16 16 15 13 13 12 12 12 12 10 16 16 13 11 10 10 10 10 9
17 18 17 17 16 15 13 13 12 13 13 13 12 19 18 13 11 10 11 10 12 10
19 19 19 18 17 15 14 15 13 15 14 15 14 18 20 16 9 11 9 10 10 4
18 18 16 15 14 14 15 14 14 15 13 15 14 15 21 22 11 10 10 9 9 9
Wind_Direction
168 170 161 176 159 168 166 161 153 149 154 145 154 162 170 181 202 193 202 173 178 119
170 169 162 164 159 156 153 142 153 146 146 147 150 156 156 143 147 155 156 132 145 119
170 170 160 157 165 161 156 157 153 148 146 147 145 152 146 143 140 138 142 136 130 119
171 167 162 164 157 162 160 157 158 150 150 153 149 150 148 142 141 139 136 131 128 118
167 168 169 167 164 160 167 165 160 154 158 158 156 154 150 155 142 143 144 135 136 129
173 172 175 169 168 167 167 167 163 162 164 163 159 155 158 146 149 147 145 147 144 138
177 177 177 172 170 173 169 169 167 167 166 165 165 159 158 156 152 149 149 147 143 142
180 177 174 174 173 173 172 173 171 169 168 171 170 167 165 159 158 157 149 147 145 110
180 178 174 174 176 172 176 174 174 175 173 175 185 140 157 161 165 164 162 159 142 126
179 178 173 177 179 177 177 172 177 178 180 181 175 143 155 175 169 171 170 165 156 164
179 181 176 178 181 178 177 175 179 182 183 184 169 156 164 189 174 177 177 174 173 177
179 183 179 182 180 179 177 176 182 184 186 187 162 162 171 183 180 184 182 183 184 182
183 185 187 184 181 178 180 180 186 188 191 191 169 171 175 193 186 186 187 187 184 145
186 193 183 180 179 177 181 182 189 190 189 194 186 178 179 200 198 190 193 189 192 186